GFSGBSN_sfc_rhum_153.txt.gz
RH
94 92 92 92 92 91 92 92 92 93 93 93 93 93 93 93 93 93 93 94 93 93 93 94 93 92 82 58 48 16 56 43 29 12 11 16 18 20 21 17 15 16 14 12 11 10 12
96 95 94 94 93 92 92 92 93 94 95 95 96 96 95 95 95 96 95 95 94 94 94 94 94 94 67 62 31 14 16 16 15 12 14 17 20 19 21 21 22 16 15 15 13 12 10
96 97 96 95 95 94 94 94 94 94 94 95 97 96 95 94 94 94 94 96 96 96 95 95 94 76 67 60 32 30 16 20 16 14 16 17 18 23 24 24 20 18 21 19 16 14 13
96 96 96 97 98 98 97 96 96 96 96 92 91 91 92 93 95 95 96 96 96 96 96 95 94 87 77 34 32 30 28 23 15 14 15 17 18 23 26 22 22 23 27 30 18 15 14
95 95 94 96 96 97 98 98 97 96 96 95 90 87 90 94 96 96 97 97 97 96 96 95 94 79 70 37 34 27 28 27 20 15 18 13 23 26 26 33 35 32 33 27 20 14 13
92 92 92 93 95 96 95 96 96 95 94 92 90 86 85 93 96 99 99 99 92 95 82 70 66 72 48 38 27 18 22 24 25 23 22 24 28 33 35 37 42 32 30 32 23 17 17
89 90 92 92 92 93 92 93 94 93 91 90 87 83 82 92 96 98 99 90 74 89 93 71 54 49 39 28 17 16 15 21 22 26 35 32 41 40 31 27 22 23 24 26 21 14 18
91 90 90 90 91 91 90 93 94 94 92 91 90 84 80 87 97 98 99 90 66 55 69 46 43 42 39 37 40 31 19 24 28 33 29 39 42 26 19 19 24 24 25 24 20 15 17
89 92 90 89 89 90 91 92 93 92 89 88 86 83 81 92 95 96 96 79 55 51 67 52 44 45 42 38 44 38 30 25 26 34 34 43 35 22 19 21 22 23 24 24 23 20 22
86 87 88 90 90 89 88 90 93 91 89 88 83 80 81 95 99 90 94 64 60 56 92 51 37 35 34 35 42 30 28 32 31 33 35 34 24 22 21 22 21 28 20 22 23 29 36
85 86 87 87 88 89 86 84 93 91 88 84 81 80 86 98 98 96 74 72 54 66 95 33 31 21 24 39 28 26 25 28 40 38 32 35 23 22 24 23 20 25 22 23 25 28 31
86 86 86 88 88 89 86 83 91 91 88 85 80 78 88 97 98 88 79 58 65 88 95 40 29 30 35 36 31 24 28 26 26 32 29 31 20 20 21 18 18 20 22 26 30 34 60
84 87 88 87 88 89 87 84 90 90 87 85 82 78 91 79 90 80 81 76 93 98 37 32 36 31 35 39 40 34 32 39 40 43 43 29 27 20 18 24 23 22 32 60 66 71 53
80 84 88 88 88 88 88 86 91 89 85 84 85 83 81 74 88 94 93 87 99 55 46 27 24 31 41 37 38 37 36 40 34 33 33 41 47 24 18 22 24 26 32 64 54 71 54
73 79 83 88 88 88 88 87 89 89 85 83 84 92 93 83 82 92 99 99 76 54 36 35 31 34 42 36 34 37 37 39 31 29 44 42 39 20 18 18 19 26 29 25 44 51 72
66 68 77 82 90 88 87 88 86 89 85 83 90 93 91 78 93 98 100 88 64 40 32 31 50 41 43 35 39 35 35 28 28 25 25 40 48 24 22 21 24 26 22 49 71 65 64
63 66 70 80 87 90 88 86 86 88 85 84 92 98 83 86 93 100 98 91 61 44 39 48 59 56 43 42 39 43 39 28 26 28 26 37 59 39 26 34 31 29 35 32 39 51 73
71 70 74 77 81 87 87 86 86 85 86 91 93 100 96 86 100 97 92 74 61 48 44 47 48 53 52 50 51 59 50 38 27 30 35 36 54 54 31 22 20 22 26 32 79 59 82
70 71 73 74 77 83 87 87 86 85 89 96 99 97 99 97 97 95 77 75 64 60 52 61 63 52 48 61 70 66 52 40 32 34 37 34 50 66 40 29 25 25 25 28 40 66 75
70 73 72 73 71 79 83 87 86 86 91 97 99 100 100 100 93 83 78 76 75 57 61 55 63 63 65 64 58 78 63 51 40 37 50 44 42 49 63 50 36 43 39 48 55 92 82
69 73 74 74 75 77 80 83 87 86 87 97 99 99 82 98 95 97 85 69 71 74 59 61 65 76 63 79 66 64 52 49 41 48 36 34 46 44 46 44 36 35 40 44 41 46 58
68 72 74 75 75 76 78 80 85 88 85 99 99 99 91 78 80 93 91 85 78 63 59 70 76 78 61 73 53 52 43 53 55 48 42 35 73 65 74 42 40 43 52 45 37 38 41
62 67 73 71 71 71 74 79 81 85 89 98 98 95 98 88 78 91 85 77 71 68 62 60 84 90 97 78 50 46 39 46 44 52 54 48 68 73 74 41 43 59 60 51 36 33 38
64 66 67 69 71 71 74 78 79 83 88 97 97 92 96 99 84 76 73 68 70 68 83 75 86 87 75 64 58 42 41 37 43 41 41 56 55 64 75 64 80 57 30 27 32 31 28
66 68 69 68 68 72 77 79 79 80 85 98 98 93 97 98 79 69 64 68 65 62 89 82 78 77 83 78 88 76 68 49 46 41 40 38 55 77 80 74 56 42 30 33 37 38 31
68 68 69 70 71 74 76 79 80 78 77 94 97 95 95 98 89 52 56 63 79 90 99 91 68 74 88 98 86 85 83 57 47 35 31 36 51 72 83 77 76 53 29 31 35 66 50
67 68 68 70 71 75 74 76 78 78 77 90 96 93 99 99 88 58 66 70 88 95 98 90 82 80 79 98 81 69 69 36 52 51 60 57 65 67 75 76 67 36 26 38 67 72 55
68 68 69 72 73 75 73 77 80 80 78 89 94 94 98 100 90 83 62 85 87 88 97 93 94 74 78 83 78 66 64 52 51 41 49 61 68 71 76 79 80 37 39 57 61 62 55
69 69 70 71 74 76 75 76 72 74 78 82 99 92 94 99 98 89 80 69 85 69 82 75 74 65 71 74 66 60 66 65 48 63 35 70 64 73 57 72 62 63 62 55 51 49 56

GFSGBSN_sfc_rhum_156.txt.gz
RH
94 93 93 93 92 92 91 92 93 93 94 94 94 94 94 95 95 96 96 96 96 96 95 94 95 94 79 67 57 30 57 48 24 15 14 19 23 27 28 24 22 19 18 16 15 14 14
96 96 95 94 94 93 92 92 93 94 95 95 95 96 96 95 95 95 94 95 95 96 96 96 95 93 71 74 36 25 22 18 20 17 18 20 25 24 29 28 28 23 21 20 18 16 14
97 97 97 96 96 95 94 94 94 95 95 96 95 96 95 91 92 93 93 95 96 95 96 96 95 80 81 72 43 39 38 34 20 17 20 21 23 24 27 28 27 24 25 23 20 20 17
95 95 96 97 98 98 98 97 96 96 96 96 95 90 91 91 93 94 95 96 96 96 96 96 95 87 92 48 45 40 39 37 23 16 18 20 21 28 29 25 25 30 30 33 23 20 17
96 95 95 96 96 97 97 97 98 98 98 96 94 89 86 90 93 96 96 94 96 97 96 96 96 85 79 47 39 36 40 31 29 20 20 14 23 28 30 36 38 37 36 33 24 16 16
92 92 92 93 95 95 95 96 97 97 97 96 93 87 84 86 94 97 98 96 91 94 84 77 73 89 60 42 33 24 26 31 34 27 25 29 30 36 39 41 45 38 36 45 28 19 18
90 91 93 94 94 93 92 93 95 96 94 91 88 86 83 84 93 96 96 94 74 80 86 76 67 68 54 39 38 29 17 23 27 30 33 33 44 45 37 35 30 31 27 29 26 19 19
92 92 93 94 93 93 90 92 94 94 95 94 94 88 82 83 93 96 98 97 74 70 81 54 54 52 44 41 50 40 34 27 30 36 35 39 45 35 32 29 30 26 28 28 24 19 20
89 91 92 91 91 91 92 93 95 95 92 90 88 84 81 83 95 97 99 86 68 75 73 62 51 52 49 44 52 46 38 29 31 36 35 41 38 33 34 30 26 27 28 28 25 25 24
87 88 89 90 90 90 89 90 93 93 91 89 86 81 78 90 93 97 97 79 70 73 88 62 48 44 43 46 55 38 38 41 32 30 37 41 32 35 36 35 27 30 23 26 29 34 37
87 87 88 87 87 89 90 90 89 92 91 89 83 78 80 94 98 96 83 88 66 56 96 41 40 31 35 50 36 30 36 45 55 40 37 46 33 30 30 24 21 27 23 24 29 33 37
86 87 88 87 88 88 89 87 84 92 92 88 83 78 84 97 99 89 85 84 61 83 96 51 33 32 41 48 40 26 30 30 37 45 44 42 32 31 26 20 23 22 26 31 32 33 48
81 84 86 87 88 88 88 89 85 89 92 88 84 79 88 83 93 87 90 86 97 98 47 42 40 35 40 43 46 36 36 42 48 52 54 44 41 32 23 23 24 24 35 56 62 68 49
76 82 85 87 88 88 89 89 87 90 95 88 86 83 84 76 87 90 94 92 100 64 60 39 36 37 45 41 44 45 46 44 39 39 43 50 60 33 26 23 25 28 35 62 64 70 50
69 74 78 80 86 90 89 88 87 91 93 87 84 95 96 85 82 89 99 100 80 62 47 42 38 44 48 41 44 48 49 47 36 36 50 50 45 24 21 21 20 27 40 34 48 58 72
63 67 70 77 80 88 91 88 87 88 90 86 90 95 95 77 90 97 100 89 73 51 40 45 56 51 57 47 50 48 40 33 35 32 32 43 46 28 24 22 24 24 26 47 74 61 60
60 62 66 71 78 85 89 90 87 86 89 86 92 98 84 88 92 100 97 86 61 45 47 52 60 64 63 67 47 47 41 33 31 33 32 42 55 37 33 36 31 32 40 40 39 61 72
63 63 68 67 69 75 80 88 88 85 91 92 98 100 93 87 100 96 96 74 60 53 49 49 51 55 59 62 64 60 55 44 33 33 35 35 54 52 34 28 27 28 33 37 74 57 82
62 65 65 67 68 74 79 84 88 88 92 99 99 98 96 96 96 96 75 72 64 62 57 57 62 62 60 69 76 71 60 48 36 36 42 36 54 65 52 33 29 30 27 33 55 71 69
64 67 66 66 66 72 75 82 87 89 88 99 99 100 99 100 93 78 76 76 75 61 64 61 64 66 74 78 63 80 66 55 55 38 50 45 51 54 60 51 45 44 39 51 66 92 82
69 69 70 69 71 73 75 78 83 87 88 98 99 100 89 99 99 90 85 76 72 76 59 64 68 66 75 88 81 74 60 58 48 58 38 39 56 43 46 45 40 42 44 44 42 51 68
68 69 72 74 72 71 71 78 81 85 88 99 100 100 97 96 80 91 92 81 79 67 64 62 71 67 73 78 73 82 73 77 72 57 48 45 69 62 69 45 42 46 60 45 45 45 47
67 68 70 71 71 70 70 76 80 83 87 100 99 95 98 96 93 89 83 81 76 75 69 62 69 89 89 79 77 85 83 70 72 65 65 53 72 68 55 41 43 58 74 56 39 36 37
68 64 63 64 68 70 71 75 79 81 83 96 99 99 100 98 98 90 68 70 72 76 76 80 81 76 78 81 87 82 84 69 62 54 47 60 65 70 74 65 77 51 42 37 38 35 34
70 66 61 64 67 70 74 77 78 80 79 99 96 99 100 98 86 85 88 75 73 70 74 73 80 83 90 84 98 100 99 77 48 46 55 49 62 79 81 69 58 53 39 34 44 41 37
71 64 63 66 69 73 73 74 77 77 77 95 99 94 99 100 96 75 76 75 87 90 89 90 78 87 89 97 99 98 95 87 56 45 44 47 56 74 84 78 79 60 33 28 37 66 58
72 70 67 68 70 72 72 74 75 76 78 92 98 95 99 100 92 79 81 86 81 97 98 96 86 95 85 99 97 94 91 68 62 56 59 66 76 73 81 74 66 44 32 39 64 62 59
72 71 71 71 71 72 72 73 76 80 78 89 93 95 96 100 95 80 69 85 95 95 97 97 97 96 100 98 96 95 70 54 60 50 56 51 67 82 79 81 75 42 43 51 55 68 61
74 72 72 72 73 72 73 74 78 78 80 83 97 94 94 98 98 96 90 88 73 74 93 93 86 81 82 83 76 66 67 68 53 66 40 68 66 74 62 71 58 61 58 56 55 54 63

GFSGBSN_sfc_rhum_162.txt.gz
RH
94 93 94 93 92 92 91 92 93 94 94 94 95 95 94 94 95 97 94 93 92 92 92 93 93 94 87 78 64 44 63 56 36 18 23 25 26 31 29 28 29 21 25 22 21 23 18
96 95 95 95 94 93 93 92 93 94 94 95 95 95 95 95 96 94 92 91 93 94 94 94 93 93 87 82 43 43 50 46 44 27 20 22 27 29 34 34 33 28 30 28 26 23 18
96 96 96 96 96 96 95 95 94 95 95 95 96 96 96 96 92 90 91 91 92 94 94 90 92 87 83 79 53 60 54 50 47 42 31 23 23 25 33 33 29 31 31 29 28 29 24
95 96 96 97 97 97 97 97 97 97 97 97 97 97 98 93 89 88 90 93 94 93 94 89 92 84 93 58 66 57 57 51 46 46 34 22 23 27 32 31 31 35 35 34 26 26 22
95 96 98 98 98 98 98 98 98 98 98 98 97 95 92 90 87 88 92 94 92 93 90 92 91 95 90 56 57 41 48 44 36 33 27 17 23 33 33 40 41 40 39 39 29 20 20
94 95 96 96 97 97 97 97 96 95 95 94 92 91 87 86 86 88 95 92 90 95 93 85 84 94 64 52 45 45 37 43 44 36 33 29 36 40 46 42 49 43 43 56 37 29 24
93 93 94 94 94 94 94 94 95 94 93 91 90 91 91 89 88 88 96 84 74 78 82 80 73 76 53 45 44 47 42 42 34 40 48 40 41 43 42 39 37 44 44 44 40 26 27
93 93 92 92 93 93 92 93 95 94 94 93 94 95 92 91 89 90 96 91 88 95 93 75 70 62 51 51 64 48 42 52 37 45 38 44 48 36 36 38 41 48 54 50 38 27 26
97 96 94 93 92 92 91 90 94 95 95 95 94 92 90 87 88 89 97 89 91 91 99 83 65 72 68 60 71 63 49 52 39 42 42 49 40 33 38 42 45 48 52 51 40 30 30
93 97 96 96 94 95 95 94 95 96 97 96 94 93 90 82 85 98 95 86 82 86 98 73 59 55 59 57 72 56 45 48 48 49 42 45 34 37 40 44 46 59 39 34 33 38 44
90 91 93 96 95 96 96 95 95 95 96 95 94 92 84 88 97 96 92 85 80 56 97 48 52 44 56 64 53 46 46 54 58 48 42 53 44 43 42 38 38 47 40 42 40 41 41
86 89 91 93 94 92 92 94 93 92 92 94 93 88 83 94 96 83 87 88 72 90 94 58 47 59 70 65 57 37 55 52 52 61 64 52 42 39 40 32 32 28 31 39 46 40 49
83 85 85 88 90 89 91 91 91 90 86 92 92 85 85 87 84 87 88 88 98 99 55 53 51 44 54 52 62 58 54 65 67 84 85 67 62 52 35 47 45 29 33 53 63 66 49
78 80 80 82 85 87 90 90 91 92 89 87 94 88 89 79 87 78 94 95 99 71 68 53 46 45 51 47 47 55 56 54 46 51 53 63 67 60 53 53 57 46 42 59 61 69 55
72 75 79 82 83 84 88 89 90 90 93 91 95 97 92 87 86 87 97 100 81 72 56 55 46 52 55 48 49 57 62 59 45 42 65 63 58 36 40 41 47 55 46 38 49 60 75
69 69 76 81 80 79 82 87 90 90 90 94 96 98 92 84 90 93 98 88 84 62 50 60 73 54 64 57 57 60 55 47 51 40 40 53 67 42 36 29 34 40 34 54 74 68 61
66 66 70 73 75 77 79 79 86 89 90 92 98 99 84 83 89 96 98 82 68 56 54 66 75 70 69 72 65 64 57 43 45 43 42 46 65 49 38 36 35 37 41 46 48 59 60
66 66 66 67 69 70 72 75 80 88 89 92 99 100 96 76 99 99 94 74 64 57 59 61 65 65 68 66 72 68 70 56 43 50 74 51 60 66 49 34 32 34 38 44 64 58 80
65 65 65 66 66 68 69 71 78 85 89 99 100 99 98 97 99 97 86 74 62 68 61 62 66 69 64 71 76 69 59 54 52 54 79 64 74 68 53 42 39 36 35 44 58 69 76
69 70 66 66 66 66 68 70 71 80 87 98 99 100 100 100 94 78 85 82 78 68 65 63 73 72 78 74 69 80 76 67 64 56 68 69 98 97 86 67 58 54 44 50 54 84 77
74 74 73 70 68 68 68 69 70 74 84 99 100 100 97 99 99 97 82 81 78 80 68 72 79 76 77 84 75 81 67 74 58 55 55 76 99 98 93 83 74 78 52 52 57 57 65
77 76 76 75 72 68 68 70 76 78 81 99 100 100 99 98 90 99 98 97 86 76 73 75 80 72 89 88 80 81 65 66 70 66 65 62 91 82 92 78 79 78 74 62 52 57 64
79 79 77 76 75 68 67 70 77 77 81 98 97 96 99 98 99 99 97 87 82 76 77 68 73 82 84 73 67 64 64 67 70 77 82 95 98 90 88 62 72 98 91 86 50 44 46
80 80 78 77 74 68 67 73 77 76 81 96 98 98 100 98 97 92 84 86 86 80 93 76 73 78 62 83 88 96 97 95 94 89 83 88 96 97 93 93 96 72 55 46 43 36 36
83 83 84 77 76 73 72 74 76 78 75 97 97 96 100 98 98 88 92 90 80 94 99 87 72 66 77 76 91 100 98 90 80 80 84 86 95 98 97 95 74 56 47 48 47 43 41
80 82 82 86 81 75 74 74 75 76 73 95 96 94 95 98 80 70 98 96 94 94 91 88 73 72 82 94 99 96 92 91 86 78 81 84 95 98 97 95 92 60 39 34 35 51 37
80 80 83 84 82 76 75 74 75 73 75 92 97 93 96 98 83 76 90 97 92 99 99 89 91 98 89 100 98 95 80 77 96 87 92 91 98 97 96 95 76 54 42 40 53 56 56
80 81 81 80 80 76 74 74 76 72 72 88 95 96 94 97 83 73 76 83 85 95 99 96 97 99 100 99 98 96 97 88 91 83 72 82 90 95 97 97 91 51 49 46 54 61 63
79 80 81 83 81 77 74 76 73 71 72 79 98 95 97 98 93 85 70 58 63 63 84 96 100 98 98 100 100 96 96 94 76 88 69 89 87 88 83 82 63 52 45 50 52 53 69

GFSGBSN_sfc_rhum_165.txt.gz
RH
93 93 93 93 92 92 91 91 92 93 93 94 94 94 93 93 94 96 96 93 91 90 92 92 88 90 74 62 50 38 67 58 34 21 16 18 21 22 22 22 21 15 16 17 14 18 13
95 94 94 94 94 93 92 92 93 93 94 94 95 95 95 95 95 96 93 91 91 91 92 92 86 91 71 63 36 46 50 44 36 29 21 17 19 21 24 24 22 23 22 21 20 19 14
95 95 95 95 95 95 94 95 95 94 94 95 95 96 96 97 96 92 89 89 90 90 92 90 86 84 86 57 47 52 51 46 39 34 28 16 19 21 24 26 24 24 24 22 20 19 18
95 96 95 96 96 96 96 96 96 96 96 96 97 98 98 94 89 86 86 89 90 90 92 86 88 78 79 51 52 52 45 40 43 41 36 23 18 22 25 25 25 24 26 25 18 19 16
97 97 95 97 98 98 98 97 97 98 98 98 97 95 93 90 86 86 87 89 87 91 89 90 86 86 75 54 52 37 39 39 36 33 29 16 21 28 27 29 30 30 26 28 23 14 14
94 95 95 95 96 96 97 98 98 98 97 94 92 89 88 88 87 88 90 87 87 93 86 79 78 85 57 46 42 38 34 36 36 32 28 22 28 30 34 29 31 34 32 29 26 19 18
94 94 94 93 93 92 93 95 96 97 97 94 91 92 93 90 90 87 90 72 61 65 71 74 67 73 55 39 38 42 35 37 30 36 44 30 33 38 32 32 30 30 32 34 31 25 28
96 94 94 93 93 92 91 92 95 96 96 96 96 94 91 89 85 87 88 80 96 93 95 70 71 64 49 43 60 46 39 47 38 44 35 38 42 32 29 32 34 36 39 39 36 28 26
89 94 95 93 93 94 93 93 95 96 97 97 96 93 91 86 87 89 93 91 78 84 97 77 70 68 63 54 62 58 46 50 47 47 39 44 39 33 34 36 39 40 42 43 38 31 24
90 90 90 94 95 95 95 93 94 95 96 97 96 94 90 86 87 96 97 89 87 82 89 68 58 55 60 58 69 52 47 46 51 48 40 38 32 36 37 38 37 46 37 36 37 38 47
92 93 89 86 90 96 97 95 95 95 95 96 95 94 87 88 94 92 91 86 84 67 96 47 49 43 55 61 53 44 44 47 54 50 40 48 38 39 42 38 35 40 38 39 39 40 39
89 91 93 94 93 92 96 97 96 95 94 94 94 92 86 92 92 77 80 85 82 96 91 52 47 59 66 61 55 39 50 46 45 50 46 47 36 35 34 34 33 31 29 33 36 36 44
87 88 90 90 93 93 93 93 94 95 93 92 95 92 84 82 82 81 84 89 99 97 51 49 45 45 54 52 55 51 59 64 59 69 73 58 54 44 32 34 32 26 38 56 48 46 42
83 81 81 81 84 87 90 90 91 94 93 90 94 91 86 78 84 79 91 97 100 66 69 49 45 42 47 39 42 47 48 52 45 48 51 57 54 58 48 40 44 43 42 56 64 56 40
77 79 81 82 83 84 86 88 90 92 93 94 96 97 90 86 84 82 94 100 85 62 51 65 48 49 50 41 44 45 51 49 43 42 61 61 55 33 45 47 46 56 62 44 60 54 72
72 74 77 81 83 82 81 84 88 89 90 95 99 99 98 85 88 90 97 82 70 55 53 59 69 61 67 63 56 50 49 44 47 53 44 51 68 41 30 28 29 43 36 53 65 81 81
74 72 70 76 80 84 80 79 82 88 88 93 98 100 87 84 87 96 98 81 63 49 51 67 74 72 66 71 63 66 58 43 46 52 52 60 66 47 30 34 35 32 40 39 43 49 62
71 70 70 71 74 80 76 74 78 83 88 96 99 100 96 80 100 100 97 74 64 53 48 60 65 74 76 67 79 92 70 56 43 46 53 63 92 66 49 35 26 28 32 38 58 50 59
68 69 68 68 68 70 71 69 73 82 86 99 99 99 98 95 99 97 96 77 63 58 58 58 64 62 63 73 80 68 60 50 45 47 57 70 97 86 57 38 34 36 33 34 45 58 61
70 72 68 66 66 67 68 70 71 75 83 99 99 100 100 100 96 85 80 79 78 64 62 57 63 67 72 72 63 68 71 56 58 50 73 84 100 91 81 58 57 67 66 57 53 79 56
75 73 73 72 67 67 68 68 69 71 81 98 100 100 95 100 99 99 81 72 73 75 64 66 71 68 69 76 68 73 64 59 52 61 62 76 100 86 86 94 85 79 77 64 64 55 63
77 78 77 74 73 70 69 69 73 74 78 98 100 100 99 95 92 99 100 98 78 73 66 75 73 69 80 81 76 77 67 73 74 58 60 60 96 84 88 68 76 90 80 69 65 59 54
78 79 80 77 73 70 68 70 73 75 82 97 98 96 98 97 99 99 92 89 88 80 84 64 63 74 83 68 64 65 65 66 67 72 73 74 85 82 86 57 63 86 88 79 65 52 46
80 80 80 77 75 72 70 73 75 77 84 96 96 96 98 93 99 96 97 98 98 84 83 73 75 87 73 64 67 76 86 83 80 78 76 84 88 88 90 78 96 56 50 54 60 58 42
81 80 76 78 77 77 76 74 76 77 77 97 97 94 100 95 84 79 83 82 81 81 85 90 92 82 70 73 100 98 92 87 82 85 80 77 83 87 92 76 65 57 48 50 61 54 54
81 81 79 79 90 81 80 76 77 76 75 95 95 92 94 95 78 68 79 72 93 93 83 84 70 70 75 99 99 95 80 70 60 69 76 72 85 97 96 91 79 47 39 35 37 52 35
80 82 83 83 83 87 83 78 78 74 75 92 96 90 93 99 83 68 80 77 93 99 98 98 89 91 79 99 96 83 81 79 88 70 84 90 97 97 95 93 73 50 41 36 53 46 39
79 80 83 85 85 83 84 87 78 75 72 92 95 92 92 97 82 68 68 75 71 64 87 90 90 94 97 99 97 88 84 77 82 66 64 61 72 81 93 96 88 51 49 58 52 46 49
79 79 79 82 85 86 86 84 80 74 71 82 94 96 94 96 88 80 73 61 67 68 78 85 81 88 98 95 92 98 94 93 85 88 59 78 64 71 80 79 66 62 59 51 51 44 48